Regional Weather Roundup
Issued by NWS Wakefield, VA

Home | Current Version | Previous Version | Graphics & Text | Print | Product List | Glossary On
Versions: 1 2 3 4 5 6 7 8 9 10 11 12 13 14 15 16 17 18 19 20 21 22 23 24 25 26 27 28 29 30 31 32 33 34 35 36 37 38 39 40 41 42 43 44 45 46 47 48 49 50
000
ASUS41 KAKQ 050210
RWRAKQ

REGIONAL WEATHER ROUNDUP
NATIONAL WEATHER SERVICE WAKEFIELD VA
900 PM EST WED MAR 04 2015

Note: "fair" indicates few or no clouds below 12,000 feet with no
significant weather and/or obstructions to visibility. * = Denotes
station may not report precipitation (e.g., rain,snow,etc.),
thunder or fog.

VAZ042-051-052>054-056-050300-
NORTHERN VIRGINIA

CITY           SKY/WX    TMP DP  RH WIND       PRES   REMARKS
WASH NATIONAL  RAIN      46  43  87 N12       29.93R FOG
DULLES         RAIN      41  41 100 NW5       29.93R VSB 3/4
FORT BELVOIR   RAIN      45  45 100 NW1       29.91F VSB 1
QUANTICO       LGT RAIN  43  40  89 CALM      29.91F VSB 3/4
FREDERICKSBRG* LGT RAIN  48  48 100 CALM      29.89F VSB 1/4
STAFFORD*      DRZL/FOG  48  32  53 NW3       29.94F VSB 1/2
WARRENTON      LGT RAIN  45  45 100 CALM      29.91F VSB 3/4
CULPEPER*      LGT RAIN  46  45  93 CALM      29.91F
MANASSAS*      CLOUDY    45  45 100 CALM      29.91S FOG
LEESBURG*      RAIN      41  41 100 NE3       29.93F
WINCHESTER     RAIN      43  39  87 CALM      29.93S
FRONT ROYAL*   CLOUDY    43  43 100 NE6       29.91F
LURAY*         RAIN      46  46 100 CALM      29.90F VSB 1/4
$$

VAZ048-049-060>072-079>083-050300-
CENTRAL AND SOUTH CENTRAL VIRGINIA

CITY           SKY/WX    TMP DP  RH WIND       PRES   REMARKS
RICHMOND       LGT RAIN  54  50  86 N3        29.89S
CHESTERFIELD*  CLOUDY    55  43  62 CALM      29.91R
PETERSBURG*    CLOUDY    57  53  85 CALM      29.91R
HANOVER        CLOUDY    51  50  96 CALM      29.90S
TAPPAHANNOCK*  LGT RAIN  51  49  94 W3        29.91R VSB 1/2
QUINTON*       CLOUDY    54  51  92 MISG      29.89S
CHARLOTTSVILLE LGT RAIN  46  45  96 CALM      29.90S VSB 1
GORDONSVILLE*  CLOUDY    41  40  99 CALM      29.90S FOG
ORANGE*        DRZL/FOG  43  43 100 CALM      29.92S VSB 1/2
LOUISA*        DRIZZLE   50  48  93 NW5       29.89S
BUMPASS*       CLOUDY    49  48  99 CALM      29.89F VSB 1/2
FARMVILLE*     CLOUDY    55  51  89 CALM      29.87F
CREWE*         CLOUDY    54  51  88 E8        29.89S
FORT PICKETT*  CLOUDY    54  52  93 E3        29.89R
CHASE CITY*    CLOUDY    58  56  92 CALM      29.87S
CLARKSVILLE*   CLOUDY    59  54  82 N5        29.87R
SOUTH HILL*    CLOUDY    59  55  86 CALM      29.93S
LAWRENCEVILLE* CLOUDY    58  55  87 NE6       29.88R
EMPORIA*       CLOUDY    59  55  88 CALM      29.89S
$$

VAZ088>098-050300-
SOUTHEAST VIRGINIA

CITY           SKY/WX    TMP DP  RH WIND       PRES   REMARKS
NORFOLK        CLOUDY    48  44  86 NE3       29.86S
VIRGINIA BEACH PTCLDY    48  43  82 E5        29.86S
NORFOLK NAVAL  CLOUDY    48  41  76 N5        29.88S
WEST POINT*    CLOUDY    56  52  88 NE3       29.91R
SALUDA*        CLOUDY    46  45  97 CALM      29.90R
NEWPORT NEWS   MOCLDY    53  49  86 N6        29.88S FOG
LANGLEY AFB    FOG       46  46 100 NE6       29.87S VSB 1/2
FORT EUSTIS    PTCLDY    51  51 100 N3        29.86R
WILLIAMSBURG*  PTCLDY    55  54  94 CALM      29.90R
HR EXEC AP*    CLOUDY    54  50  87 CALM      29.89S
FRANKLIN*      CLOUDY    59  56  89 N5        29.88R
WAKEFIELD      CLOUDY    53  50  89 N3        29.88R
$$

VAZ020-022-025-037-045-050300-
WEST CENTRAL AND SOUTHWEST VIRGINIA

CITY           SKY/WX    TMP DP  RH WIND       PRES   REMARKS
STAUNTON*      LGT RAIN  44  43  96 CALM      29.92R VSB 3/4
WAYNESBORO*    CLOUDY    45  45 100 CALM      29.90S VSB 1/2
HOT SPRINGS VA DRZL/FOG  42  42 100 W7        29.87S VSB 1/4
LYNCHBURG      LGT RAIN  49  49 100 N5        29.92R FOG
DANVILLE       CLOUDY    58  49  72 NE6       29.87S
SOUTH BOSTON*  CLOUDY    57  51  79 CALM      29.87S
MARTINSVILLE   CLOUDY    58  50  76 N3        29.89F
ROANOKE        LGT RAIN  47  46  97 NE5       29.93R FOG
BLACKSBURG     RAIN      45  45  99 CALM      29.93S
DUBLIN*        LGT RAIN  47  47 100 E5        29.90F
MARION*        CLOUDY    50  48  95 CALM      29.91F FOG
HILLSVILLE*    CLOUDY    49  47  94 N6        29.88S
RICHLANDS*     LGT RAIN  46  45  95 NE6       29.91S VSB 1/4
WISE*          LGT RAIN  41  41 100 N12       29.95R
ABINGDON*      CLOUDY    51  50  95 CALM      29.89R
$$

MDZ021>025-VAZ099-100-050300-
SOUTHERN MARYLAND AND THE DELMARVA PENINSULA

CITY           SKY/WX    TMP DP  RH WIND       PRES   REMARKS
PATUXENT RIVER FOG       47  45  93 CALM      29.89S VSB 1/2
BAY BRIDGE APT LGT RAIN  36  36 100 N7        29.94R
LEONARDTOWN    CLOUDY    46  45  93 CALM      29.91S
DOVER          LGT RAIN  41  41 100 N3        29.92R FOG
GEORGETOWN     LGT RAIN  44  43  96 N3        29.91R VSB 1/2
EASTON         LGT RAIN  45  45 100 CALM      29.96R VSB 1
CAMBRIDGE        N/A     45  43  93 N5        29.90S
SALISBURY      FOG       50  47  89 CALM      29.89S VSB 1/2
OCEAN CITY     CLOUDY    44  43  96 CALM      29.89S FOG
WALLOPS ISLAND FOG       45  45 100 SW6       29.91R VSB 1/4
ACCOMACK*      FOG       46  45  93 CALM      29.89S VSB 1/4
$$

NCZ012>017-030>032-050300-
NORTH CENTRAL AND EASTERN NORTH CAROLINA

CITY           SKY/WX    TMP DP  RH WIND       PRES   REMARKS
ROANOKE RAPIDS FAIR      61  57  88 S3        29.87S
RALEIGH        MOCLDY    64  53  67 SW7       29.89R
ELIZABETH CITY CLEAR     65  58  78 S18       29.88R
AHOSKIE*       CLEAR     65  58  77 S3        29.88R
EDENTON*       CLEAR     64  58  81 S13       29.89R
CURRITUCK*     CLEAR     63  59  85 SW6       29.89R
KILL DEVIL HLS CLEAR     61  57  87 SW9G17    29.90R
MANTEO         CLEAR     55  54  94 S18       29.92R
CAPE HATTERAS  CLOUDY    56  56 100 SW12      29.98S FOG
TARBORO*       FAIR      70  59  69 S7        29.90R
GOLDSBORO      PTCLDY    68  67  98 S12       29.90R
WASHINGTON     PTCLDY    68  59  74 SW12      29.91R
GREENVILLE     PTCLDY    68  61  77 SW10      29.93R
NEW BERN       PTCLDY    65  60  84 S10       29.96R
WILMINGTON     PTCLDY    66  62  87 SW18G28   29.98R
$$

VAZ048-050300-
ELSEWHERE

CITY           SKY/WX    TMP DP  RH WIND       PRES   REMARKS
HARRISBURG PA  LGT RAIN  38  36  92 NW6       29.93S
BALTIMORE      RAIN      41  40  96 CALM      29.93R VSB 1
ANNAPOLIS      LGT RAIN  38  36  92 NW6       29.93R VSB 3/4
ANDREWS AFB    RAIN      45  45 100 N10       29.91S FOG
PHILADELPHIA   LGT RAIN  41  40  96 W5        29.95R VSB 3/4
HENDERSON NC   MOCLDY    67  53  61 SW8       29.87S
GREENSBORO     MOCLDY    64  56  75 SW10G17   29.86S
ROCKY MOUNT    CLEAR     68  59  73 S8        29.89R
$$

VAZ100-050300-
MARINE

STATION/POSITION TIME  TEMP    WIND        PRES    WAVE   SWELL
                       AIR SEA DIR/SP/G            HT/PER HT/PER
                 (UTC) (F)     (DEG/KT/KT) (MB)    (FT/S) (FT/S)
BRANDYWINE LGT   0200   43 31  150/  4/  4 1013.3R
CAPE MAY NJ      0200   42 35   80/  3/  4 1012.7R
LEWES DE         0200   42 32   CALM  /  1 1012.7R
15NM E FENWICK I 0200   37 36              1012.1R   4/ 8
OCEAN-CITY-INLET 0200   42 33   CALM  /  1 1011.8R
WACHAPREAGUE VA  0200   45 40   10/  3/  3 1012.2F
THOMAS POINT MD  0200   41 32  360/  9/  9 1014.3R
COVE POINT MD    0200   39     350/ 12/ 12 1012.4R
SOLOMONS ISLAND  0200      33                N/A
BISHOPS HEAD MD  0200   42 35  140/  2/  3 1011.7R
CAMBRIDGE MD     0200   41 32  320/  4/  4 1012.7R
LEWISETTA VA     0200   44 35     CALM     1011.9F
RAPPAHANNOCK LGT 0200           60/  5/  6 1012.3F
STINGRAY PT      0200   39 34   30/  4/  6   N/A     0
YORK RVR RNG VA  0200   46      20/ 11/ 12 1011.1F
YORKTOWN VA      0200   45 35   CALM  /  3 1011.6F
DOMINION TERM VA 0200   48      50/  6/  9 1011.4S
KIPTOPEKE VA     0200      39   80/  8/ 12   N/A
CHES BAY BRIDGE  0200   44 34   90/  6/  8 1010.8F
CAPE HENRY VA    0200   46     150/  8/ 10 1009.9F
CHESAPEAKE LGHT  0100   53     100/  8/ 10 1012.2F
WILLOUBY STN VA  0200   43      40/  8/  8 1011.8S
S CRANEY ISL VA  0200          350/  5/  7 1011.2S
CAPE HENRY BUOY  0200      36                N/A     3/ 7
1ST LANDING BUOY 0200   40 35  140/  4/  8 1010.9F   2/ 4
OFFSHORE WE BUOY 0200      37                N/A     4/ 7   3/ 7
64NM E OF VA BCH 0200   57 52  210/ 23/ 27 1011.4R   7/ 6   2/10
DUCK PIER NC     0200   60 37  200/ 16/ 21 1011.0R
44100 DUCK FRF   0200      39                N/A     4/ 6   2/11
44056 DUCK FRF   0200      37                N/A     3/ 8   2/11
OREGON INLET NC  0200   49 49  200/ 17/ 19 1013.8R
HATTERAS NC      0200   57 46  220/ 12/ 15 1015.3S
CAPE LOOKOUT NC  0100   62     210/ 16/ 20 1015.1S
$$



USA.gov is the U.S. government's official web portal to all federal, state and local government web resources and services.